Regional Weather Roundup
Issued by NWS

Home | Current Version | Previous Version | Text Only | Print | Product List | Glossary Off
Versions: 1 2 3 4 5 6 7 8 9 10 11 12 13 14 15 16 17 18 19 20 21 22 23 24 25 26 27 28 29 30 31 32 33 34 35 36 37 38 39 40 41 42 43 44 45 46 47 48 49 50

000
ASUS43 KLOT 262002
RWRIL

ILLINOIS REGIONAL WEATHER ROUNDUP
NATIONAL WEATHER SERVICE CHICAGO/ROMEOVILLE IL
300 PM CDT SUN APR 26 2015

NOTE: "FAIR" INDICATES FEW OR NO CLOUDS BELOW 12,000 FEET WITH NO
SIGNIFICANT WEATHER AND/OR OBSTRUCTIONS TO VISIBILITY.

* THESE STATIONS ARE NOT UNDER NWS QUALITY CONTROL. THEY ALSO MAY NOT
  REPORT WEATHER SUCH AS PRECIPITATION OR FOG.

ILZ001-002-007-009-015-016-024-262100-
NORTHWEST ILLINOIS

CITY           SKY/WX    TMP DP  RH WIND       PRES   REMARKS
MOLINE         SUNNY     60  32  34 NE6       30.02F
STERLING*      SUNNY     57  36  44 NE10      30.03F
$$

ILZ003-004-008-010-011-017-018-262100-
NORTH CENTRAL ILLINOIS

CITY           SKY/WX    TMP DP  RH WIND       PRES   REMARKS
ROCKFORD       MOSUNNY   60  29  30 N13G20    30.04F
FREEPORT*      SUNNY     57  29  35 N6G16     30.04F
$$

ILZ005-006-012>014-019>023-262100-
NORTHEAST ILLINOIS

CITY           SKY/WX    TMP DP  RH WIND       PRES   REMARKS
CHICAGO-OHARE  MOSUNNY   56  26  31 NE18G25   30.01S
CHICAGO-MIDWAY MOSUNNY   57  26  30 N21G26    30.01S
AURORA         MOSUNNY   58  30  34 N13       30.00F
LANSING*       SUNNY     52  25  35 N18G24    30.01S
WAUKEGAN       SUNNY     52  31  44 N16       30.02S
DUPAGE AIRPORT SUNNY     58  31  35 N15G22    30.00S
WHEELING       SUNNY     54  27  35 NE12G22   30.03S
NORTHERLY ISL    N/A     47  33  58 N13         N/A
$$

LMZ740>746-262100-
SOUTHERN LAKE MICHIGAN

STATION/POSITION SKY/WX   TEMP    WIND        PRES    VSBY  WAVE
                          AIR SEA DIR/SP/G                  HT/PER
                          (F)     (DEG/KT/KT) (MB)    (MI)  (FT/S)
HARRISON CRIB              39     350/ 16/ 17   N/A
BURNHAM HARBOR             49     360/  8/ 16   N/A
CALUMET HARBOR             46     340/ 11/ 13   N/A
BURNS HARBOR               41     360/ 11/ 13 1016.9S
MICHIGAN CITY              40     340/ 14/ 15   N/A
MICHIGAN CITY 6N           38 45  360/ 14/ 16   N/A           3/ 4
$$

ILZ025>027-034>036-040-047-049-050-058-095>099-262100-
WEST-CENTRAL ILLINOIS

CITY           SKY/WX    TMP DP  RH WIND       PRES   REMARKS
QUINCY         SUNNY     60  34  37 N13G22    29.99S
$$

ILZ028>032-037-038-041>044-048-051>054-059>061-262100-
CENTRAL ILLINOIS

CITY           SKY/WX    TMP DP  RH WIND       PRES   REMARKS
DECATUR        MOSUNNY   59  39  47 N18G25    29.96S
PEORIA         SUNNY     60  35  39 N10G21    30.00F
SPRINGFIELD    MOSUNNY   61  39  44 NE17      29.98S
TAYLORVILLE    NOT AVBL
$$

ILZ033-039-045-046-055>057-062-063-262100-
EAST-CENTRAL ILLINOIS

CITY           SKY/WX    TMP DP  RH WIND       PRES   REMARKS
CHAMPAIGN      MOSUNNY   57  38  48 N17G24    29.95F
DANVILLE*      PTSUNNY   56  38  51 N17G24    29.93S
MATTOON        SUNNY     58  39  49 N13G23    29.92F
$$

ILZ079-100>102-262100-
SOUTHWEST ILLINOIS

CITY           SKY/WX    TMP DP  RH WIND       PRES   REMARKS
ALTON          SUNNY     59  34  38 N8        29.95
BELLEVILLE     SUNNY     62  39  42 NW7       29.92F
CAHOKIA*       SUNNY     63  39  41 NE10      29.93F
SPARTA*        SUNNY     59  40  48 N14       29.93S
$$

ILZ064>066-069>071-074>076-080>082-084>086-088>090-092>094-262100-
SOUTH-CENTRAL ILLINOIS

CITY           SKY/WX    TMP DP  RH WIND       PRES   REMARKS
CARBONDALE     SUNNY     63  38  39 N10       29.89F
MARION         MOSUNNY   63  37  39 NE12      29.90S
MT. VERNON     SUNNY     61  36  39 N12G17    29.91S
SALEM*         SUNNY     61  35  37 N8G22     29.93S
$$

ILZ067-068-072-073-078-083-087-091-262100-
SOUTHEAST ILLINOIS

CITY           SKY/WX    TMP DP  RH WIND       PRES   REMARKS
LAWRENCEVILLE  SUNNY     62  36  37 N15       29.90F
HARRISBURG*    SUNNY     61  38  42 N10G17    29.90F
ROBINSON*      SUNNY     60  33  36 NE9       29.91S
$$

ABBREVIATIONS USED IN REMARKS
   TC - TEMPERATURE IN CELSIUS
  WCI - WIND CHILL INDEX
   HX - HEAT INDEX
  VSB - VISIBILITY
$$



USA.gov is the U.S. government's official web portal to all federal, state and local government web resources and services.